Location: Rowland
(34.5359°N, 79.2929°W)
Time: 19:53:01
(UTC+00:00)

Transit 2A - Pass Details

Date: 11 October 2022
Orbit: 598 x 959 km, 66.7° (Epoch: 03 December)

Event Time Altitude Azimuth Distance (km) Brightness Sun altitude
Rises 00:58:19 0° 176° (S) 2,961 - -27.4°
Reaches altitude 10° 01:00:59 10° 163° (SSE) 2,009 - -27.9°
Maximum altitude 01:04:35 24° 109° (ESE) 1,283 - -28.6°
Drops below altitude 10° 01:08:03 10° 56° (NE) 1,944 - -29.3°
Sets 01:10:36 0° 42° (NE) 2,843 - -29.8°
